Location: Waco, TX
(31.5480°N, 97.1670°W)
Time: 09:20:48
(UTC-05:00)

ISS - Pass Details

Date: 23 May 2017
Orbit: 402 x 409 km, 51.6° (Epoch: 25 May)

Event Time Altitude Azimuth Distance (km) Brightness Sun altitude
Rises 21:48:27 0° 226° (SW) 2,318 0.1 -16.2°
Reaches altitude 10° 21:50:31 10° 227° (SW) 1,460 -0.9 -16.6°
Maximum altitude 21:53:48 80° 315° (NW) 416 -3.8 -17.1°
Drops below altitude 10° 21:57:05 10° 43° (NE) 1,466 -1.0 -17.7°
Sets 21:59:10 0° 44° (NE) 2,327 0.0 -18.0°
